Theta_e
316 316 316 316 316 316 317 316 317 317 318 318 318 319 319 319 319 319 319 320 319 319 319 319 319 320 320 320 320 320 319 321 319 317 317 324 332 348 347 346 348 351 360 346 336 337 334 335 338 346 343 342 338 336 341 340 341 339 329 328 322 325 320 324 323 324 325 325 329 331 333 332 329 334 335 339 337 336 336 337 339 340 344 345 343 345 346 347
316 316 316 315 315 316 316 316 317 317 317 317 318 318 318 319 319 319 319 319 319 319 319 319 319 319 320 320 320 320 320 319 319 318 317 327 339 347 349 347 350 356 362 334 335 334 333 333 338 343 339 335 340 333 341 336 340 333 327 325 320 325 327 326 330 328 328 325 330 332 332 333 332 335 334 333 332 333 333 336 337 337 343 344 343 344 346 346
315 315 316 315 315 316 316 316 317 317 317 317 318 318 318 318 318 318 318 319 319 319 319 319 319 319 319 320 320 320 319 319 320 317 322 339 339 345 345 350 349 357 349 331 339 337 335 335 338 340 337 334 335 330 338 334 336 334 328 324 323 328 330 332 330 329 330 330 329 329 331 332 331 335 333 333 331 333 333 331 335 336 337 340 340 343 345 345
315 315 316 315 315 315 316 316 316 317 317 317 317 317 317 318 318 318 318 318 318 318 319 318 319 319 319 319 320 321 320 320 314 317 326 356 347 346 344 350 352 355 340 335 341 337 335 336 336 338 333 331 332 334 333 335 330 332 328 323 324 334 328 330 331 331 331 331 329 330 328 331 331 337 332 333 331 331 334 337 336 336 338 337 342 340 344 343
315 315 315 315 315 315 316 316 316 316 316 317 317 317 317 317 317 317 318 318 318 318 318 318 318 319 318 319 318 322 320 308 312 327 335 352 349 346 346 350 354 342 334 337 340 335 333 333 333 334 331 326 331 332 332 334 336 331 327 327 328 331 321 331 332 332 331 328 328 327 327 329 333 335 332 333 328 328 333 338 339 340 340 341 341 343 344 343
315 315 314 315 315 315 316 316 316 316 316 316 317 317 317 317 317 317 317 317 318 318 318 318 318 318 319 319 320 320 316 301 322 330 351 352 348 343 345 350 356 337 333 337 334 331 331 331 332 328 326 327 325 327 331 334 337 324 329 329 330 332 330 331 332 331 330 331 329 327 330 332 328 329 331 334 330 329 337 340 341 340 340 343 343 344 343 343
314 314 314 315 315 315 315 315 316 316 316 316 316 316 317 317 316 316 316 317 317 317 318 318 319 318 318 319 319 317 314 313 318 330 360 350 345 345 347 352 359 339 333 334 330 327 329 330 331 327 325 325 325 327 330 332 334 329 323 328 328 329 330 335 335 334 331 329 329 331 332 326 329 323 331 330 333 334 337 339 343 344 344 343 342 341 343 343
314 314 314 314 314 314 315 315 315 316 316 316 316 316 317 316 316 317 317 317 317 318 318 319 319 319 318 319 319 316 313 312 318 335 350 353 338 341 350 337 340 339 332 330 328 325 327 328 329 330 324 323 324 326 329 327 331 327 325 326 328 330 332 334 335 333 333 332 333 331 327 326 327 327 330 328 332 337 336 338 340 342 342 342 341 343 344 340
314 313 314 314 314 314 315 315 315 315 315 315 316 316 316 316 316 317 317 317 318 319 320 320 319 319 319 320 318 312 313 322 323 336 343 331 328 330 338 333 334 336 333 329 328 326 325 326 331 330 322 323 328 324 328 325 322 329 327 327 325 326 330 332 332 332 331 331 330 327 325 327 328 331 327 332 331 336 337 337 341 342 341 341 342 344 343 344
313 313 313 314 314 315 315 315 315 315 315 315 315 315 315 315 316 316 317 317 318 320 321 321 320 319 318 316 315 308 318 321 320 322 335 326 329 328 331 333 333 335 333 328 325 323 323 326 329 331 329 327 328 323 327 326 323 329 327 325 326 327 328 331 329 329 330 328 328 324 323 325 329 326 323 331 335 337 337 337 342 341 341 341 343 343 345 342
313 313 314 314 314 314 314 315 315 315 315 315 315 314 315 316 315 315 316 317 320 322 323 322 321 319 318 317 311 310 320 318 328 330 324 322 322 328 326 329 332 332 331 326 322 323 324 327 330 330 326 323 326 324 325 327 330 325 324 326 326 326 327 328 328 327 328 325 327 326 323 324 326 326 324 329 333 337 335 338 340 340 339 341 342 342 345 345
313 313 313 314 314 314 314 315 315 315 315 314 314 314 315 315 315 315 316 319 321 322 323 323 321 320 320 316 311 314 324 320 328 327 329 327 321 326 328 326 331 330 329 324 321 323 324 326 327 326 319 326 320 325 324 329 329 328 325 318 320 322 321 325 324 325 327 324 327 327 322 320 322 321 326 330 333 336 337 338 340 340 341 342 342 343 345 345
314 314 314 314 314 314 315 315 314 315 314 314 314 314 315 314 314 315 318 319 322 321 322 322 322 322 319 311 315 322 325 327 325 329 330 330 328 332 331 326 327 330 329 326 323 324 325 325 325 322 325 324 320 317 323 326 324 325 323 319 317 317 317 322 325 326 325 325 327 325 311 316 319 323 327 331 334 336 336 338 339 341 340 341 342 342 345 346
314 314 314 314 314 314 314 314 314 313 313 313 313 313 313 313 313 316 318 321 322 319 321 322 323 322 319 314 319 321 323 325 324 324 330 333 331 330 329 327 329 329 330 327 326 326 325 325 324 322 327 324 317 325 320 319 322 317 319 319 313 312 313 322 323 324 322 325 325 324 312 315 319 323 327 330 335 334 334 336 337 340 340 341 341 343 344 345
314 314 314 314 314 314 314 314 313 312 313 313 313 312 312 312 314 317 320 323 323 321 322 322 323 321 314 316 324 326 347 321 319 322 330 329 330 329 330 333 332 330 330 329 327 328 327 325 323 319 318 326 324 318 316 316 317 317 313 310 314 311 314 320 324 323 319 323 326 322 313 314 319 324 327 330 333 330 333 335 337 339 339 340 341 342 343 344
313 314 314 314 314 314 314 313 312 313 313 312 311 311 313 314 316 318 321 324 322 322 324 322 322 321 317 313 320 332 320 315 316 323 326 323 323 320 325 327 329 330 329 327 329 329 328 326 319 320 320 323 318 314 314 313 312 315 312 311 310 312 313 316 321 324 323 323 324 321 313 317 318 326 328 331 333 331 334 335 336 337 340 340 341 341 344 344
313 313 314 314 314 314 313 312 312 312 311 311 310 311 314 316 317 321 324 323 323 325 325 323 323 321 309 319 326 316 314 316 320 320 323 323 320 320 325 326 325 325 327 327 328 328 327 323 323 322 323 318 316 313 309 308 308 310 314 310 313 312 313 312 320 323 323 322 318 321 316 317 320 326 329 332 333 332 333 332 334 337 337 340 341 343 342 344
313 313 313 314 314 314 313 312 312 312 310 310 310 311 313 317 316 321 324 323 328 327 326 326 324 315 311 319 311 314 321 318 317 317 319 324 323 320 322 324 325 325 325 323 325 321 324 319 322 314 317 315 313 310 306 304 307 308 310 310 311 314 315 314 313 319 321 321 319 319 318 318 320 326 329 330 331 332 332 336 333 333 337 337 338 340 341 345
314 314 313 313 313 313 312 312 311 310 310 310 312 316 317 316 318 326 324 325 322 319 312 316 312 303 307 314 319 317 317 321 321 317 314 319 322 320 322 325 324 323 318 316 315 319 321 317 317 312 308 309 310 311 309 311 313 311 312 312 312 311 312 314 317 321 320 318 317 317 316 318 320 321 326 326 327 329 331 334 334 334 339 339 337 339 342 343
314 313 314 313 313 313 312 311 311 309 308 311 315 314 320 309 308 320 317 317 316 317 317 313 316 314 316 318 317 320 322 322 317 317 317 318 318 316 316 320 319 321 316 310 312 314 319 308 307 306 309 311 312 315 314 313 314 314 314 314 312 312 314 318 318 321 322 318 317 317 317 317 319 321 325 329 330 329 329 331 335 339 338 338 337 338 339 341
313 313 313 313 312 312 312 311 310 309 308 312 314 309 302 302 298 298 303 304 307 308 307 308 309 311 314 318 321 317 313 315 318 317 319 319 317 314 311 316 314 311 312 313 311 315 316 306 306 310 311 313 314 315 316 314 313 312 312 312 311 313 312 317 318 320 321 316 315 318 317 318 319 321 322 325 329 329 327 328 333 335 334 336 339 337 338 343
313 313 313 312 312 311 311 310 309 308 308 315 312 305 306 306 308 310 306 299 305 308 309 309 310 308 312 313 319 320 317 313 313 317 321 318 313 308 310 312 311 308 312 312 313 310 309 307 309 313 314 315 315 315 315 313 311 312 311 312 311 312 315 318 319 320 320 317 314 317 315 316 319 320 322 322 324 329 330 330 332 336 338 339 339 338 338 340
313 313 313 312 311 310 310 309 308 307 313 312 308 306 306 310 314 314 310 304 302 309 309 307 306 307 308 313 314 318 313 310 310 315 317 319 312 310 311 309 310 311 311 311 307 307 305 310 314 315 316 314 314 314 313 312 312 310 310 309 307 312 311 309 316 318 319 317 314 316 314 316 320 321 321 322 323 327 331 331 330 332 333 336 337 339 340 340
313 313 312 312 311 310 310 308 307 313 313 312 310 306 310 313 314 313 307 300 299 305 308 310 310 308 308 307 313 313 311 313 314 312 321 317 311 312 311 311 310 310 308 310 309 308 307 313 317 315 315 314 311 311 311 309 307 310 311 310 309 310 311 312 313 316 318 318 318 316 314 315 318 317 318 322 324 324 328 330 333 334 336 339 341 339 339 339
313 313 313 312 310 309 308 306 309 308 312 313 308 309 312 314 314 314 305 304 305 304 314 312 313 312 312 317 316 309 311 314 315 318 320 318 313 310 310 314 312 308 310 311 310 309 310 314 316 313 312 313 311 309 310 310 306 308 310 311 310 311 311 312 314 313 312 311 316 314 307 308 316 316 316 320 321 321 326 329 329 336 336 339 337 339 341 344
313 313 312 311 311 309 307 310 308 309 310 307 307 310 312 313 315 314 306 299 295 303 312 304 314 308 319 311 313 311 312 306 315 318 321 319 320 313 311 310 312 307 310 311 309 310 311 315 314 312 311 311 310 309 311 311 307 305 307 311 311 311 311 311 311 311 307 306 313 317 306 304 314 314 317 318 319 320 324 327 328 330 335 335 338 339 338 337
312 312 312 310 310 308 306 303 309 311 306 305 310 311 311 312 319 312 303 299 297 308 305 310 309 309 314 313 312 312 299 303 315 318 318 322 315 318 309 308 312 312 314 314 310 306 312 313 313 313 311 309 309 307 310 311 307 305 312 312 311 310 309 309 310 310 309 314 315 315 312 306 307 313 319 320 318 319 321 326 328 326 335 336 337 337 337 339
312 311 310 309 308 308 308 310 311 308 307 310 311 311 311 314 316 314 302 290 291 310 304 306 309 315 313 313 313 307 308 314 307 312 318 321 319 314 311 308 309 309 312 311 302 311 312 310 312 310 310 308 307 310 312 312 309 308 311 312 310 310 309 309 309 308 310 309 306 309 313 308 307 314 319 319 316 317 319 325 327 328 331 335 340 339 340 342
311 311 310 309 308 306 313 312 311 309 312 311 311 311 311 313 311 304 297 290 306 306 314 305 314 312 311 312 310 309 310 313 308 313 317 319 320 316 308 310 312 312 312 311 306 310 313 313 313 313 311 307 310 312 313 313 308 312 312 312 312 312 311 309 307 307 308 306 302 307 310 305 306 312 314 318 317 317 320 326 328 330 330 333 335 338 343 346
310 310 309 308 308 313 313 312 310 311 311 311 312 312 311 310 306 298 292 287 308 299 307 306 306 305 310 305 306 309 306 310 311 314 315 313 315 317 316 317 312 311 309 312 311 312 314 318 318 314 311 313 313 314 314 313 312 314 312 310 309 309 309 310 309 307 305 300 302 308 309 307 302 310 312 312 314 318 321 325 329 330 331 333 337 338 337 340
309 309 308 308 309 309 309 308 309 310 312 313 312 310 309 306 298 292 287 297 303 303 307 307 304 308 306 305 303 308 307 309 310 311 309 313 312 313 313 311 314 310 309 309 308 310 313 314 312 314 317 317 316 313 315 315 314 312 309 307 307 306 309 307 306 308 300 297 305 308 307 308 300 306 313 318 320 320 320 322 327 329 328 331 333 333 338 343
308 306 308 310 312 313 308 305 309 312 313 312 310 306 303 293 299 287 290 305 294 302 302 301 306 305 304 306 304 306 304 307 310 308 307 308 308 306 307 305 307 301 302 304 303 309 307 309 314 314 318 315 313 311 311 312 312 310 308 307 301 300 301 297 301 297 297 297 305 307 308 304 304 310 314 317 318 321 323 322 325 327 328 331 335 336 335 335
306 306 305 312 315 313 311 313 313 313 312 311 307 303 296 291 285 294 294 297 293 301 301 305 302 302 303 302 302 306 309 304 309 308 310 310 308 308 310 309 310 306 300 306 304 304 305 311 312 312 314 316 315 306 307 306 309 308 305 304 300 297 296 293 297 300 300 303 306 306 309 302 308 311 315 315 319 321 322 324 325 325 331 333 333 336 334 339
306 306 313 316 312 312 313 314 312 312 310 310 305 298 294 287 286 299 294 299 297 303 303 301 301 302 302 300 304 307 303 307 308 307 308 307 307 305 307 309 310 308 308 307 303 303 299 299 306 310 306 315 313 311 310 309 308 308 310 307 303 303 299 295 297 295 297 301 304 307 304 302 302 306 316 317 319 322 323 324 327 327 329 337 337 335 334 340
305 310 316 315 313 312 310 311 313 312 310 306 299 294 286 287 292 291 294 296 299 300 298 301 299 299 299 302 305 307 306 303 308 307 306 305 303 306 306 306 309 311 309 303 307 306 303 303 309 313 313 314 311 314 314 311 309 310 311 311 305 303 309 301 303 302 301 301 301 304 302 307 308 316 318 319 318 319 321 323 325 326 327 333 336 334 333 332
308 315 315 311 308 308 310 311 312 311 308 302 295 290 287 291 289 297 294 300 299 295 296 299 299 297 298 300 305 304 307 303 306 306 305 305 307 305 310 309 308 310 307 303 308 303 305 302 311 312 313 313 313 314 312 314 302 308 308 303 306 312 309 305 307 308 307 304 301 308 306 308 313 313 315 318 318 317 319 321 322 324 325 332 333 332 332 333
312 314 309 309 308 309 311 311 311 309 306 300 293 288 293 295 298 296 299 296 297 297 296 291 294 295 296 297 302 303 305 306 304 304 301 307 304 308 308 310 312 310 311 309 306 312 304 304 311 310 307 313 316 315 314 313 314 310 303 306 312 314 311 307 300 304 302 299 302 306 303 305 304 302 314 315 315 316 317 318 320 324 326 326 331 331 330 333
310 311 309 308 308 310 311 312 310 309 304 298 291 293 297 293 299 298 300 298 297 297 293 292 292 296 294 296 299 302 303 300 303 303 301 305 301 310 309 309 313 312 312 313 308 309 311 304 309 311 310 312 315 314 311 313 315 310 308 314 306 301 300 306 304 297 298 297 300 304 306 306 307 307 311 312 313 314 316 319 319 321 323 324 325 328 333 333
312 307 302 306 310 310 310 312 310 306 301 295 291 290 295 295 299 298 299 298 297 296 292 293 291 295 295 293 299 301 301 297 302 303 300 303 301 306 306 306 308 311 312 313 309 310 312 303 306 312 310 311 312 310 302 306 312 313 315 310 312 309 304 302 304 305 305 299 299 300 304 302 310 311 313 313 315 316 316 317 318 319 321 322 324 325 328 333
306 302 299 308 310 311 313 311 305 303 296 290 291 291 296 293 297 298 300 298 295 294 293 293 296 293 295 296 299 297 300 299 300 301 302 305 303 305 304 307 305 308 310 312 310 313 308 312 302 309 313 311 304 308 305 306 304 305 307 307 308 307 311 309 308 304 302 301 301 301 299 304 310 314 314 316 317 317 317 318 320 320 322 324 325 326 328 334
308 302 300 309 310 312 310 306 299 295 292 294 294 292 294 292 295 296 298 298 297 300 296 294 294 292 294 294 295 298 298 299 300 299 301 303 303 300 304 305 306 306 310 310 310 311 308 309 303 307 305 305 306 311 310 310 309 307 306 305 307 304 303 300 299 308 305 302 298 300 301 310 313 317 316 316 319 319 319 320 319 321 321 325 326 328 331 334
302 296 299 309 310 310 305 297 296 298 295 292 291 293 292 297 295 295 297 298 298 296 300 296 296 295 295 294 295 296 297 296 298 298 301 301 303 303 303 307 307 308 308 307 308 313 313 311 307 305 305 306 309 312 314 314 313 310 309 307 310 308 307 303 296 302 305 305 306 306 303 307 316 319 319 318 319 319 321 321 320 320 322 323 325 326 330 334
300 298 307 309 310 307 301 295 297 297 294 295 298 297 296 295 293 295 294 296 294 297 296 296 296 296 297 296 296 296 297 296 298 297 300 302 303 303 305 305 307 309 309 309 310 312 316 306 305 306 311 311 313 314 314 314 312 309 309 310 309 306 307 306 306 308 305 305 302 302 301 307 315 321 319 318 321 319 323 321 322 321 322 323 324 326 331 333
300 300 302 308 310 307 299 289 290 292 294 296 296 294 297 295 293 293 293 294 293 295 294 294 296 298 295 299 297 294 298 292 298 298 298 302 302 305 305 305 306 306 306 305 305 311 304 308 306 303 304 305 307 310 309 312 311 308 307 309 310 310 310 310 310 311 305 306 305 302 298 304 315 319 319 318 317 317 318 319 321 321 323 323 325 327 332 338
300 303 302 304 308 305 295 296 294 293 293 294 292 293 294 295 296 296 295 294 296 295 293 293 295 297 296 298 296 297 298 296 294 300 302 301 301 305 305 305 305 305 307 308 311 311 305 306 305 300 298 296 296 297 299 302 305 308 310 309 310 309 308 307 303 306 300 309 310 305 304 313 315 319 317 317 317 318 318 319 319 322 324 323 324 343 348 349
297 292 297 299 302 302 301 302 299 294 294 294 292 294 294 292 295 297 297 296 296 296 294 295 297 297 296 295 294 294 295 298 295 295 298 299 301 303 305 305 305 305 308 310 311 310 305 308 307 306 305 303 307 313 311 311 308 304 307 309 308 309 310 310 308 305 302 307 307 310 311 311 313 314 316 316 317 317 317 319 319 320 323 330 339 342 340 342
300 294 293 291 298 299 296 298 296 296 293 296 290 294 291 293 294 295 299 293 297 296 295 296 295 293 293 293 292 292 295 296 299 297 296 297 299 301 304 305 305 307 307 309 309 308 306 303 307 309 308 309 311 312 310 311 308 307 307 307 309 309 309 308 305 303 312 307 300 311 315 310 312 314 315 317 317 319 318 320 321 322 323 326 334 333 340 330
293 296 297 299 292 290 292 294 296 296 297 296 293 295 292 292 293 291 295 297 296 298 293 295 295 294 294 292 293 290 293 294 294 293 295 295 294 299 299 304 303 306 306 305 308 306 303 302 307 308 307 309 311 310 310 309 309 309 308 308 308 309 308 306 307 309 311 306 304 312 315 312 314 314 315 317 319 320 318 320 321 324 327 331 334 333 327 325
300 299 299 301 293 295 295 296 296 296 295 295 293 294 292 292 291 293 293 293 295 295 296 289 292 294 295 296 294 290 292 288 290 296 294 293 295 296 296 300 304 305 304 304 306 308 305 302 306 307 306 308 309 310 310 308 308 309 309 309 309 309 308 308 308 309 310 312 312 314 315 312 314 316 316 319 321 320 320 322 324 325 322 328 327 325 323 327
297 295 294 300 299 296 296 296 296 295 293 295 291 294 293 292 291 294 295 294 291 293 297 292 292 295 295 295 296 291 292 292 291 289 295 294 294 298 296 297 296 301 304 301 303 307 303 302 305 305 304 305 307 309 309 308 307 306 308 309 309 309 309 310 309 309 311 310 311 311 314 313 316 320 320 321 322 321 322 319 319 324 324 322 322 321 325 326
302 303 302 296 292 295 296 296 295 294 292 295 293 293 293 293 292 295 294 297 295 292 294 291 293 294 295 295 295 294 295 295 295 295 296 296 292 298 294 295 298 296 300 300 303 303 304 301 304 302 300 301 305 305 306 307 307 307 306 308 308 308 307 309 308 311 309 309 311 310 310 311 318 321 320 321 322 321 320 321 321 321 321 322 322 322 324 327
304 305 305 299 292 297 293 295 296 294 291 294 293 293 293 293 295 296 292 296 297 297 295 294 294 293 293 293 292 294 298 299 298 299 299 299 299 299 300 299 299 298 298 299 303 299 301 300 299 300 297 299 304 305 305 306 305 302 304 306 309 310 310 311 312 312 312 312 309 307 309 315 319 321 319 319 319 320 320 320 321 322 326 323 324 323 323 324
Wind_Speed
22 22 23 23 23 22 23 23 23 22 23 23 24 24 24 23 23 24 23 21 21 20 20 19 18 18 18 17 16 15 15 14 14 13 15 23 10 9 13 8 13 15 13 14 14 16 17 17 18 16 12 11 10 11 8 10 8 3 7 8 3 6 4 5 12 5 5 8 9 6 7 7 8 6 7 6 7 10 8 8 7 7 2 10 19 20 22 22
23 23 23 23 23 22 23 22 22 22 23 24 25 25 25 25 25 24 24 22 21 21 20 19 19 17 18 17 16 14 14 14 16 16 22 17 11 12 14 15 17 16 14 16 17 18 18 18 18 16 13 11 10 10 9 8 8 8 7 9 4 9 10 9 6 5 6 7 6 8 2 3 9 5 6 5 7 9 9 9 9 9 12 17 20 23 23 23
22 23 22 22 23 23 22 22 22 23 23 24 25 25 26 26 27 25 24 22 21 21 20 19 18 17 17 17 15 13 14 15 16 20 23 23 21 17 17 18 21 16 18 17 17 18 17 17 17 16 13 11 11 11 11 8 9 11 11 9 4 10 20 11 1 6 4 3 9 3 8 5 6 5 5 5 8 7 7 9 10 11 14 17 20 22 23 24
23 23 22 22 22 22 22 22 23 23 24 24 25 25 26 26 26 25 24 23 21 19 18 18 18 16 17 17 13 14 12 15 15 16 2 6 16 21 19 20 22 20 20 18 16 17 15 15 16 17 13 13 11 13 11 8 8 8 11 9 3 17 5 8 3 4 5 4 4 5 7 3 8 6 4 6 6 5 7 8 10 13 15 19 19 22 22 23
24 24 23 23 22 22 23 23 23 24 24 25 25 26 27 27 26 25 25 24 22 20 18 17 17 17 16 14 12 11 11 10 1 13 9 8 12 17 17 20 21 23 21 17 16 16 16 16 17 17 14 12 12 12 12 12 11 8 9 11 9 3 3 4 1 8 4 4 1 5 4 5 7 5 5 7 3 5 8 11 11 14 15 19 21 21 21 23
23 23 23 23 23 23 24 24 25 25 26 25 26 25 24 26 24 25 25 24 23 21 19 18 16 16 15 13 12 10 7 5 7 7 6 8 13 15 16 19 21 22 20 18 16 16 17 17 17 15 13 13 14 13 12 13 12 11 9 11 10 10 9 7 3 5 1 3 2 1 4 2 4 5 4 5 7 0 6 11 13 15 18 18 20 20 22 22
25 24 23 23 24 24 24 25 25 26 25 25 26 25 25 25 24 23 23 23 22 22 19 17 15 13 14 12 12 9 12 17 6 12 13 14 11 12 14 16 19 21 19 18 18 16 18 17 18 16 14 15 16 14 13 13 13 11 10 8 10 9 11 5 2 4 5 2 4 4 4 4 6 5 5 5 4 7 5 12 12 16 17 19 18 22 23 22
25 24 24 24 25 25 26 26 26 26 26 26 26 26 26 26 25 24 24 23 22 21 19 15 13 11 9 9 8 9 13 14 17 15 14 15 16 14 14 17 20 19 19 19 18 18 17 19 18 15 14 13 11 14 12 15 14 13 13 11 9 8 9 10 7 5 7 7 4 6 6 6 4 4 5 6 7 8 9 10 15 15 18 19 21 21 21 21
24 24 25 25 26 27 27 27 27 27 26 26 26 26 26 25 24 24 24 23 21 18 16 13 10 10 9 8 9 11 14 14 15 18 17 16 14 15 17 13 19 18 17 18 18 16 17 16 18 17 12 16 13 14 14 13 11 13 14 13 11 10 10 9 9 9 8 6 8 8 9 7 7 5 7 6 9 11 9 12 15 17 17 19 20 20 20 19
25 24 25 26 26 28 28 28 28 28 28 27 27 26 24 24 24 24 24 22 20 17 14 10 8 10 9 9 9 12 7 2 2 8 17 13 14 15 19 14 19 19 18 18 17 19 18 14 18 17 16 13 13 14 10 15 9 9 16 16 13 10 10 10 11 10 10 11 9 10 8 8 7 6 6 9 10 12 12 13 17 17 18 18 18 18 19 21
25 24 25 25 26 27 28 28 29 29 29 28 28 26 23 22 23 24 23 21 18 17 13 9 10 12 11 11 12 12 5 6 4 4 8 12 14 17 17 15 18 18 19 17 19 19 17 16 16 10 12 11 10 14 12 10 15 6 7 7 12 13 12 12 11 12 10 10 11 10 10 7 8 9 7 10 12 14 13 15 17 17 16 17 18 19 18 18
24 25 25 25 26 27 28 28 29 29 29 30 28 26 24 23 22 23 21 18 18 10 8 9 13 9 10 11 14 13 7 4 1 6 7 10 14 19 18 16 17 18 18 17 19 18 18 17 14 16 11 10 13 10 14 14 13 14 12 12 12 13 13 15 15 14 12 11 9 10 11 12 11 12 9 7 14 14 14 15 18 17 17 17 17 17 17 16
25 25 25 26 27 27 27 29 29 29 30 29 27 25 24 22 21 22 18 16 9 9 5 9 12 8 9 12 17 20 17 7 2 6 7 8 11 14 15 15 17 18 18 17 16 17 17 16 17 17 17 10 12 10 5 10 15 11 12 11 12 13 14 16 16 16 16 12 12 9 10 9 13 13 11 9 12 13 14 15 16 15 16 16 17 17 17 17
25 25 26 27 27 28 28 29 29 30 30 28 27 24 21 20 21 19 17 13 10 6 5 11 10 8 10 11 5 5 12 14 12 7 9 8 13 15 15 15 15 15 15 17 15 14 17 15 17 17 13 15 10 9 7 9 9 13 12 11 11 11 12 16 15 15 17 12 14 10 10 6 7 11 11 10 14 12 14 15 16 15 16 15 17 17 17 18
24 26 26 27 28 28 29 28 29 29 29 28 26 24 22 21 18 16 14 16 9 4 7 10 9 8 9 11 15 21 7 6 13 12 9 10 12 11 13 12 15 16 15 15 12 11 13 16 17 16 14 14 15 12 10 11 10 11 11 14 13 14 11 14 17 18 16 11 14 12 10 9 6 13 13 13 12 13 14 13 15 14 14 16 16 17 17 17
23 24 26 26 27 28 28 29 29 29 29 29 27 26 22 16 14 14 13 10 5 8 9 8 9 10 11 13 2 11 10 15 15 13 12 12 11 12 13 14 13 15 14 13 10 8 10 14 15 13 13 14 17 12 8 9 12 12 13 12 15 14 13 12 16 16 17 14 14 14 9 9 9 11 11 10 15 14 15 14 12 14 14 15 15 16 16 17
23 23 24 25 27 27 29 28 30 29 29 29 29 26 20 11 8 7 6 7 7 8 7 4 6 7 7 3 3 8 11 14 12 15 14 14 11 8 12 13 13 15 13 9 9 8 13 14 10 12 14 13 14 13 11 13 14 14 13 14 13 16 15 13 11 16 16 16 13 16 13 9 7 10 11 12 13 14 13 15 15 13 13 15 14 14 16 17
24 24 24 24 27 28 27 29 29 30 30 31 28 27 18 10 4 8 8 8 6 7 7 8 8 6 16 18 9 9 12 11 14 14 16 13 14 9 11 12 12 14 13 12 12 13 12 12 11 13 12 16 16 16 17 18 16 14 14 14 15 16 16 15 13 14 17 19 17 13 14 14 11 14 14 12 7 11 14 16 15 15 11 12 11 13 15 16
26 25 25 25 25 27 27 28 29 29 29 27 29 32 10 5 5 8 7 5 6 6 7 9 9 10 7 2 16 4 4 8 13 14 18 18 15 11 10 10 13 15 14 13 12 17 12 11 12 14 18 19 19 19 19 17 16 17 17 14 14 14 14 15 16 15 18 16 17 17 13 14 16 11 11 9 11 11 12 14 17 15 15 15 11 11 12 14
26 25 25 25 25 26 28 27 29 29 28 21 17 14 5 4 4 7 3 7 12 13 17 7 14 17 16 7 7 4 7 3 10 14 15 18 15 15 14 13 14 15 15 14 15 18 13 16 18 20 17 19 21 21 20 20 18 16 16 15 16 16 15 13 12 12 13 13 16 16 17 16 14 15 14 14 15 15 13 13 14 18 14 15 16 14 15 15
26 25 25 24 25 25 26 26 29 28 28 17 17 11 9 12 12 8 18 18 17 20 22 23 21 18 16 11 4 7 7 12 12 13 16 16 17 16 16 15 15 16 16 17 14 14 15 17 20 21 21 20 21 21 19 20 21 20 16 18 15 17 16 14 16 14 11 9 10 12 13 16 16 15 15 16 15 16 14 13 14 17 17 16 16 17 15 12
26 26 25 25 24 26 26 28 28 26 26 15 9 10 9 9 5 9 11 15 18 16 19 22 19 20 19 22 14 3 6 9 16 15 14 19 18 18 17 18 19 17 17 17 14 15 17 20 20 21 20 19 18 20 21 21 21 21 16 13 14 14 14 15 17 17 15 12 10 14 15 14 17 15 11 13 16 13 14 13 10 12 13 13 16 17 15 14
26 25 25 24 24 26 28 28 28 23 11 9 8 12 10 10 8 7 9 14 20 19 17 20 21 23 20 16 17 13 12 13 14 17 18 19 20 21 18 19 19 17 18 20 18 17 16 18 21 20 18 20 20 20 22 22 19 16 17 14 15 13 14 13 17 18 15 9 9 15 17 13 14 14 16 19 17 15 14 14 16 14 16 18 17 15 14 18
25 25 25 25 24 26 27 26 27 17 4 8 8 13 11 9 9 11 11 9 13 21 18 21 19 18 20 18 13 19 18 13 13 18 18 19 19 21 17 22 20 19 19 24 24 19 19 10 18 20 19 20 21 20 19 17 17 18 19 17 16 16 16 15 12 17 18 14 14 15 14 14 15 17 16 16 11 10 14 14 16 17 15 14 13 14 15 16
26 24 25 26 26 25 29 27 10 10 12 10 6 13 11 11 9 10 11 9 11 14 11 12 12 14 12 12 10 16 16 14 17 12 17 20 21 18 18 15 16 19 20 23 24 21 19 16 14 21 21 21 21 19 20 17 16 17 23 20 17 18 18 17 16 15 15 17 15 15 13 14 13 16 16 13 15 17 16 16 15 18 17 18 18 18 18 19
27 26 24 25 26 25 32 13 7 12 15 5 12 12 12 11 8 8 8 7 10 6 11 10 10 7 9 13 12 12 12 18 18 15 15 19 18 18 13 15 14 19 24 22 20 14 15 17 15 18 22 21 21 18 19 20 15 16 16 23 20 20 19 19 17 17 14 11 11 16 15 13 14 18 18 18 18 19 17 17 15 14 18 18 19 18 19 21
26 27 25 23 24 23 13 6 12 13 8 8 12 13 11 10 7 10 7 7 11 8 9 9 9 5 7 13 14 13 12 13 15 19 18 20 21 17 19 17 15 13 14 12 11 16 17 20 18 14 20 20 18 18 19 19 15 14 12 18 22 23 22 19 19 17 13 10 13 15 15 14 13 14 16 18 20 21 19 18 16 14 17 19 21 22 22 21
27 27 27 25 23 19 9 11 11 9 9 11 14 12 12 8 8 7 6 6 5 11 8 7 4 5 6 12 16 17 6 5 19 22 22 18 21 20 20 21 18 19 18 16 20 13 19 19 20 20 18 17 18 17 17 18 16 12 13 14 15 19 22 22 17 15 12 11 13 15 19 13 13 11 12 15 19 21 17 16 16 17 17 17 19 19 20 21
24 26 27 27 26 29 13 8 8 9 9 12 13 13 9 11 8 6 6 8 6 3 5 7 1 7 4 11 15 18 13 9 8 17 23 19 23 14 18 22 19 18 22 21 17 13 14 18 20 20 16 16 17 18 16 18 16 16 14 13 14 12 15 20 17 15 14 14 16 16 16 14 14 11 12 14 17 16 17 17 15 16 15 14 16 20 19 18
24 23 25 25 21 10 4 9 8 8 12 12 13 14 15 9 6 7 7 9 5 4 2 6 8 6 9 11 11 17 20 9 4 8 24 20 21 22 14 15 18 17 19 22 21 17 13 16 19 16 17 15 15 14 16 18 18 11 16 13 8 7 8 9 13 14 14 18 18 19 20 17 14 13 14 16 16 12 11 14 16 18 15 15 13 14 17 20
24 24 22 21 10 9 10 7 8 14 13 12 14 16 12 7 7 8 11 3 8 7 5 7 4 4 7 11 9 16 17 13 10 10 17 20 20 22 15 15 17 15 15 18 20 21 20 15 16 14 15 13 13 15 17 17 17 16 12 12 8 10 9 9 10 12 14 18 16 20 20 20 17 13 13 14 16 20 17 16 18 18 19 16 17 17 19 17
25 25 22 14 9 9 8 11 14 13 12 14 16 11 7 9 9 10 9 7 12 8 9 6 7 9 7 8 12 10 15 16 13 14 17 18 18 19 21 18 17 17 18 19 18 19 22 19 13 17 16 20 17 14 14 16 16 15 14 14 13 10 10 12 11 16 19 16 10 17 19 17 23 15 11 15 16 17 18 16 18 22 20 19 17 16 16 18
27 26 23 14 12 7 9 11 12 12 13 14 12 9 9 8 11 9 13 14 2 10 8 11 12 13 12 12 12 13 11 16 16 16 18 19 18 20 24 21 20 19 14 16 15 17 17 19 19 17 14 17 17 16 13 15 16 17 16 15 14 13 14 12 14 11 11 15 15 13 18 19 16 14 21 18 15 17 15 15 17 21 23 21 19 19 19 17
28 26 12 6 6 8 8 11 11 14 14 11 10 9 10 11 12 11 18 8 12 13 13 12 17 15 14 10 11 13 13 13 17 15 18 15 20 17 20 26 23 22 16 13 16 17 15 18 22 20 15 19 20 18 14 11 16 16 16 15 14 12 10 13 11 16 15 8 14 18 12 15 18 11 12 19 21 14 14 17 18 18 20 20 17 17 19 16
31 25 12 5 6 5 11 12 11 13 11 10 9 10 11 11 9 11 9 12 11 14 15 18 16 16 13 13 13 7 8 6 17 17 17 16 17 18 19 21 28 20 18 15 15 13 23 16 15 23 13 20 22 22 18 15 13 15 15 12 14 17 10 11 8 11 10 11 11 15 16 10 11 7 7 10 18 22 14 11 14 17 14 22 17 17 16 16
23 7 7 2 7 9 12 10 11 11 10 9 9 10 11 10 9 8 8 12 12 14 19 19 15 13 12 10 12 7 9 8 9 15 15 19 16 19 19 15 21 26 17 18 10 14 14 16 15 23 24 19 23 21 21 16 13 15 15 19 18 13 13 9 9 11 12 11 12 10 12 13 7 9 13 8 10 17 20 17 14 14 16 17 18 17 15 14
10 11 4 5 7 12 10 11 9 10 8 10 10 11 10 10 6 7 8 14 15 15 14 11 6 9 7 8 9 12 1 6 8 11 12 16 16 18 18 16 19 25 25 17 14 11 11 12 17 18 28 20 20 22 22 20 13 11 17 16 13 13 12 10 10 8 9 9 8 11 14 12 12 9 10 14 15 14 19 22 20 16 16 19 19 18 16 16
14 10 10 5 11 12 11 9 10 9 9 9 11 13 11 14 10 11 11 13 13 12 12 12 11 15 12 10 8 9 6 7 5 11 11 14 6 4 5 12 17 12 26 26 14 12 12 10 15 21 22 20 18 20 21 22 22 14 13 12 15 14 16 13 8 13 11 12 9 10 12 11 13 10 10 16 17 18 18 19 21 20 20 18 17 20 22 21
14 11 2 10 12 13 10 10 10 8 8 9 9 13 2 11 8 11 12 12 10 12 10 10 12 11 14 13 13 5 6 8 11 8 12 11 11 8 6 7 4 6 7 7 19 11 11 13 9 19 21 20 17 18 19 19 22 22 11 15 15 11 13 13 12 7 8 9 10 11 13 11 11 11 12 11 17 16 16 17 18 20 20 18 17 17 19 20
8 8 4 11 12 12 11 11 8 6 6 8 8 8 11 13 10 11 13 11 10 8 9 13 12 12 14 16 15 9 6 13 10 10 12 5 4 11 11 9 8 8 10 7 9 14 12 12 12 15 21 19 17 16 20 20 21 20 17 14 15 12 9 10 10 13 10 9 8 7 10 11 12 12 14 11 10 16 15 14 14 15 16 17 15 15 15 18
9 10 4 13 13 12 12 9 4 5 8 5 6 9 12 10 12 11 13 9 9 7 12 13 12 11 12 13 11 11 12 9 10 10 10 9 3 4 12 12 10 11 10 8 9 13 12 11 15 13 16 19 18 19 21 22 20 19 18 16 15 16 15 16 14 12 13 10 6 7 7 1 8 3 7 11 9 11 15 15 15 15 15 15 15 16 15 15
10 7 8 12 12 14 12 6 4 5 5 7 8 8 9 9 11 10 12 13 12 10 8 11 14 14 12 13 12 12 12 12 12 13 9 10 11 6 10 12 11 12 9 8 12 16 10 5 13 14 15 16 18 20 20 20 22 21 19 17 16 14 14 12 10 11 11 12 9 8 6 2 8 4 2 7 9 10 11 12 12 13 14 14 14 16 16 15
8 9 8 6 11 14 10 4 4 5 6 6 9 9 8 7 8 9 10 8 10 8 11 9 11 13 11 12 14 15 14 12 13 12 14 16 2 7 11 13 16 12 5 7 11 14 7 7 10 14 14 14 17 17 19 20 20 21 20 19 17 17 17 13 10 8 10 11 12 9 9 4 10 8 6 5 5 7 8 11 11 11 12 12 13 13 15 14
9 9 7 8 11 11 7 7 8 8 7 9 10 10 6 8 8 8 8 9 7 6 8 10 11 6 12 13 12 12 11 11 11 15 14 11 1 8 6 12 15 9 9 9 7 8 6 13 12 10 11 11 14 16 17 19 19 16 17 19 20 18 18 16 12 8 10 12 12 10 9 10 9 6 7 8 7 6 9 10 10 10 10 11 12 9 6 12
10 6 3 8 8 7 7 6 7 7 8 9 11 10 9 5 4 6 9 9 8 6 7 8 10 11 11 9 12 13 14 14 12 16 16 8 5 7 7 11 12 10 10 11 14 10 8 8 14 13 16 16 17 18 18 19 21 15 18 21 24 24 23 16 15 11 8 8 13 10 8 7 12 5 7 4 7 8 8 9 10 9 9 10 11 12 11 9
8 10 8 7 8 4 3 4 4 8 9 8 10 7 9 8 5 6 7 8 6 9 8 10 8 10 9 9 10 10 14 15 16 11 10 8 7 5 9 10 11 9 12 16 15 10 7 9 13 16 14 13 3 3 9 16 14 19 21 23 24 24 23 18 12 13 13 9 9 9 8 12 10 11 8 9 9 8 7 6 9 11 10 8 10 8 8 6
8 7 10 10 9 2 8 6 7 8 8 9 8 7 10 9 8 7 5 8 5 11 9 6 9 9 8 11 9 11 12 14 16 20 14 13 11 11 13 13 12 6 11 14 7 7 7 10 12 18 23 16 7 6 13 11 18 21 21 23 22 25 24 23 18 15 9 9 11 9 12 8 9 8 8 9 9 8 9 8 7 7 8 6 6 7 3 5
6 6 8 7 9 9 11 7 10 10 10 10 8 9 10 9 9 9 6 5 10 7 8 2 4 8 10 10 11 9 8 12 15 10 16 12 14 15 12 11 10 7 6 7 7 5 7 9 13 14 18 26 12 5 9 8 11 13 22 21 24 24 26 26 22 18 14 12 8 10 11 12 4 9 9 10 9 8 8 9 11 10 9 6 5 5 6 8
6 8 7 8 10 10 11 13 13 12 11 9 7 9 8 8 11 9 9 9 8 7 5 8 8 9 11 11 9 9 8 8 7 10 11 14 11 9 9 10 8 4 6 8 7 5 5 8 7 11 18 19 15 9 10 11 12 11 9 20 24 24 25 25 22 21 18 12 11 6 13 16 14 7 12 9 7 6 7 7 5 7 7 6 6 5 8 10
8 8 7 7 9 11 11 9 9 10 9 6 8 2 6 8 11 10 8 9 9 8 6 8 9 10 11 12 10 9 8 9 12 11 11 12 12 11 9 12 13 16 9 8 8 5 6 3 7 10 8 12 15 12 11 12 12 13 14 10 17 23 21 21 22 21 19 17 15 13 8 9 11 13 8 11 10 5 1 2 2 5 9 12 9 7 5 10
8 7 7 9 11 8 9 9 8 8 8 7 6 6 8 8 9 8 10 10 10 8 6 8 10 13 12 12 12 12 10 11 11 13 12 10 10 10 10 8 13 12 13 9 6 8 7 8 7 7 9 11 14 13 14 11 10 11 13 16 13 16 22 20 18 17 18 16 16 15 13 10 7 8 10 10 6 6 7 7 7 7 7 6 4 7 6 6
9 9 7 6 10 10 10 10 11 8 7 5 6 9 8 11 11 10 10 7 5 5 7 9 10 11 13 13 12 10 9 9 10 11 11 10 11 14 14 15 13 10 8 10 8 8 6 7 6 6 9 10 11 15 15 14 15 15 18 16 15 13 11 14 17 18 18 16 15 15 12 7 8 9 10 10 11 10 10 9 9 10 8 7 8 7 8 6
Wind_Direction
357 355 354 351 348 346 344 343 340 336 333 330 327 325 324 323 322 324 323 320 319 318 315 313 312 311 307 307 307 307 309 293 294 273 243 247 261 155 157 144 162 179 191 193 193 178 184 195 197 197 202 209 216 232 218 209 247 226 249 242 232 339 277 255 249 103 103 141 105 139 137 128 123 135 98 155 143 110 147 115 122 90 100 114 130 146 144 147
356 354 352 350 347 344 342 340 336 334 330 327 325 324 322 321 324 323 320 318 317 315 313 311 310 308 305 303 305 305 304 288 278 265 247 258 170 168 158 158 165 180 196 204 189 185 185 190 194 190 201 213 206 230 205 210 220 236 244 242 251 142 244 221 259 45 40 69 87 97 111 182 106 162 119 187 134 132 152 127 139 124 102 112 134 140 146 153
355 353 350 349 346 343 338 335 333 330 327 324 322 321 321 321 323 321 318 316 315 313 311 309 308 305 302 301 299 301 290 288 271 260 259 236 211 172 166 161 173 176 194 203 189 191 194 187 189 190 206 217 197 224 199 212 189 222 252 263 234 160 215 225 311 80 64 8 98 142 119 119 135 180 123 188 142 142 159 144 147 139 129 133 139 151 152 158
354 352 349 346 344 340 336 332 330 328 325 322 321 319 322 323 321 318 315 312 310 309 308 304 304 303 299 297 302 301 286 280 272 260 356 78 191 171 165 164 174 181 198 212 189 199 197 190 193 197 202 223 192 229 194 197 205 213 240 253 140 270 260 152 249 108 78 348 77 104 101 195 126 139 197 124 161 155 171 154 161 141 146 142 155 155 160 159
352 350 347 344 340 337 333 331 328 326 324 321 320 324 324 321 319 314 311 308 308 305 302 301 298 296 294 292 295 284 286 284 279 77 57 79 140 155 160 168 177 186 200 205 194 203 199 195 193 199 216 209 218 206 217 210 212 248 241 260 272 235 187 300 86 68 30 71 294 110 190 104 113 162 175 181 224 159 168 156 153 146 144 152 157 157 158 166
350 348 345 341 337 335 332 329 327 326 324 321 321 319 318 319 316 312 308 306 302 301 300 298 293 287 288 290 289 267 263 235 60 76 88 95 132 156 167 176 185 193 198 201 197 196 199 197 194 200 211 224 216 212 203 223 193 249 228 253 255 273 287 84 217 129 191 223 307 54 93 156 161 164 175 198 124 180 93 139 153 146 152 161 160 161 164 167
349 346 343 340 336 332 330 328 327 325 323 321 319 319 319 317 313 307 305 302 301 301 301 294 287 282 274 292 270 258 239 268 296 130 135 135 153 163 172 179 189 201 199 200 196 196 199 200 198 201 213 220 228 218 220 212 215 233 260 230 231 251 255 204 252 159 216 251 245 292 42 257 157 244 125 193 173 121 124 124 138 138 148 155 167 167 172 168
347 345 342 339 335 332 331 330 327 324 322 320 318 319 318 315 311 308 305 303 304 302 298 291 282 264 269 251 244 225 230 247 262 152 140 135 160 169 168 182 190 205 206 204 193 201 195 205 198 205 220 218 215 223 212 225 215 228 243 257 270 257 230 236 229 223 224 244 277 251 248 236 194 232 174 184 180 146 137 140 137 150 155 165 168 173 170 171
346 344 342 338 335 333 331 329 326 325 323 320 318 317 318 315 312 308 307 306 301 299 293 287 265 251 240 270 252 263 250 243 246 139 149 154 160 163 171 176 194 205 212 207 201 205 200 205 205 210 215 223 229 232 215 230 217 225 242 243 241 239 242 232 230 231 242 244 239 241 229 237 226 192 237 177 178 160 152 144 145 150 157 166 168 174 171 170
346 344 341 338 335 333 331 328 326 325 324 321 318 317 318 314 311 307 308 306 301 294 291 276 246 221 212 217 229 250 266 328 102 198 162 173 166 167 183 184 185 205 211 210 205 207 206 202 212 206 241 241 239 237 227 219 243 214 223 238 250 243 239 226 237 231 227 235 231 235 237 239 201 213 206 197 179 150 169 153 148 157 160 170 169 174 173 176
345 343 340 337 335 332 329 327 326 326 322 321 318 316 315 313 310 307 308 304 301 296 288 252 213 204 213 223 242 241 92 248 174 170 210 217 199 182 192 196 186 201 213 208 214 209 207 219 204 220 227 245 232 239 234 227 234 244 250 255 240 250 251 256 245 244 243 233 234 241 246 240 234 196 236 171 181 163 167 161 157 162 164 168 171 174 173 178
344 342 338 335 332 332 329 327 326 325 322 319 317 315 316 314 310 307 305 304 297 305 288 220 190 210 235 237 236 231 91 239 267 241 198 204 208 195 198 201 194 205 206 211 212 209 213 215 212 216 223 206 248 249 228 238 232 246 255 243 240 240 243 229 234 231 228 240 222 229 252 234 218 226 202 172 162 159 171 163 166 164 163 167 169 172 174 179
343 339 337 335 331 331 329 328 327 324 320 317 315 313 313 311 310 304 300 297 309 309 252 193 191 222 231 241 243 240 255 251 266 287 242 206 199 195 202 208 202 208 210 217 208 212 213 216 220 220 231 218 224 225 18 232 224 240 238 252 254 248 236 226 225 226 223 220 225 212 238 222 205 209 172 167 151 165 176 171 171 167 168 165 172 172 173 179
341 339 336 335 331 331 330 328 326 322 318 314 312 310 309 308 306 300 291 287 299 282 208 182 203 213 234 247 264 168 236 244 251 249 229 193 193 190 200 199 202 208 213 223 219 209 216 217 220 232 227 236 232 224 221 241 223 228 231 238 253 243 232 214 222 214 227 208 214 208 249 238 177 166 155 170 163 170 181 179 181 173 169 170 170 172 177 179
340 338 337 334 333 332 330 329 326 320 318 314 311 309 306 305 299 292 282 281 264 225 179 179 215 226 226 261 246 251 113 261 221 210 207 185 188 173 193 193 202 205 211 223 229 220 218 213 220 220 223 222 257 248 221 230 218 221 228 226 227 237 234 224 203 212 219 202 211 206 244 258 166 152 169 159 150 191 191 185 183 177 179 171 173 172 177 179
338 337 337 335 332 331 331 330 326 321 319 315 313 309 301 293 282 276 272 307 164 185 177 192 201 235 294 279 279 96 178 211 208 206 198 202 179 191 185 194 196 199 205 211 228 215 218 213 217 216 224 210 227 232 236 221 225 214 228 230 221 219 233 233 200 200 211 223 195 221 231 225 167 152 163 142 166 187 187 180 191 186 180 177 177 177 175 176
336 335 336 334 333 331 331 329 325 321 320 315 314 306 301 293 267 262 282 217 183 200 215 238 182 204 248 70 111 214 203 206 208 199 202 206 201 192 168 180 186 191 196 192 218 217 201 217 201 227 225 225 208 219 226 223 215 215 212 231 231 222 213 233 193 192 203 222 203 196 239 232 100 167 147 162 186 186 189 182 192 183 186 181 181 182 183 180
335 335 334 334 333 332 330 329 325 321 320 317 309 302 285 268 253 282 228 223 223 213 228 254 272 236 242 247 244 231 206 192 199 196 200 196 209 197 177 181 179 184 178 178 204 208 188 206 198 219 204 219 207 206 216 216 210 207 205 214 226 237 224 217 221 181 209 198 230 204 212 236 192 172 164 197 199 200 189 177 182 184 190 195 187 185 193 191
335 335 333 334 332 331 330 328 323 323 319 316 300 284 271 172 212 236 247 206 208 193 211 185 198 191 30 204 212 354 208 184 177 197 190 197 196 210 191 189 181 179 185 192 180 204 174 210 202 217 213 204 210 207 216 222 218 218 210 214 225 225 224 220 216 205 191 203 209 234 232 213 225 191 170 184 205 220 209 196 175 197 177 165 188 206 200 198
333 333 333 333 333 331 328 327 323 320 321 322 319 321 155 322 244 182 207 269 247 253 289 304 207 257 299 287 190 174 68 111 183 196 192 193 188 197 200 195 181 192 193 200 170 205 172 205 203 210 212 207 212 216 219 224 239 229 226 224 220 227 232 225 231 204 184 221 219 209 230 241 220 216 186 182 195 216 210 204 187 161 168 179 186 201 193 199
332 331 332 331 332 330 326 325 321 320 318 313 310 7 24 357 343 334 337 297 270 258 258 264 254 249 252 262 266 197 207 193 222 191 203 177 194 186 195 195 189 196 201 200 187 190 196 213 216 212 214 214 210 217 219 227 229 238 232 225 227 222 230 212 213 220 156 219 216 232 241 230 230 226 204 186 199 206 209 206 192 169 183 181 189 193 198 182
331 330 330 331 331 330 326 324 318 317 313 294 346 13 20 21 336 314 312 300 296 274 265 255 254 250 247 253 258 259 279 234 195 202 191 181 186 195 180 202 193 200 192 199 195 190 207 217 218 212 211 219 217 211 221 225 223 228 238 235 239 225 227 226 215 218 218 192 239 235 233 235 239 242 238 223 190 210 212 196 192 174 181 170 194 191 189 192
329 328 327 330 331 329 326 320 317 309 299 320 13 12 14 347 330 325 291 279 280 270 249 245 237 236 241 235 233 234 233 226 201 193 185 187 183 205 181 198 199 202 194 199 202 195 210 222 218 214 207 215 219 215 213 221 227 227 223 230 225 226 218 213 221 218 215 206 229 230 242 245 241 238 234 234 215 187 206 192 183 192 187 184 189 204 188 189
328 325 325 328 330 328 320 320 308 292 313 338 318 21 355 338 339 323 303 277 293 292 249 234 222 226 226 217 206 220 221 221 232 190 182 187 195 194 205 197 202 203 203 200 210 208 212 211 206 216 211 209 218 215 213 214 220 224 232 222 229 226 220 239 209 210 232 195 220 248 251 247 232 233 222 232 240 195 196 213 187 185 196 185 170 200 197 202
325 325 325 326 330 326 318 319 304 1 314 277 10 2 349 340 340 348 301 286 236 247 252 239 210 220 225 207 197 205 211 233 228 216 178 193 191 187 212 193 212 207 211 202 212 223 221 217 192 207 213 208 215 216 211 213 220 219 225 232 229 232 241 224 244 245 216 224 205 220 242 241 235 242 244 233 213 206 200 204 204 179 186 171 180 189 201 204
323 324 326 327 327 331 310 293 14 336 309 21 2 346 339 336 349 329 302 275 274 239 153 196 157 188 178 192 181 203 203 226 213 221 189 194 205 201 193 211 205 211 208 208 210 224 229 209 215 201 207 208 212 221 210 213 225 221 214 220 232 240 236 244 235 235 240 225 216 213 240 239 226 230 226 229 240 207 192 198 209 190 175 191 189 181 197 199
324 322 324 326 326 332 329 15 328 304 321 0 346 336 335 327 359 312 273 238 258 169 154 95 203 109 244 167 173 175 203 225 197 215 208 182 205 197 211 205 195 233 210 213 207 219 219 217 206 203 206 210 210 214 215 210 220 227 216 208 219 230 240 241 241 239 244 238 255 236 213 241 245 231 225 222 224 230 189 186 203 212 187 186 189 186 190 201
323 322 322 326 322 320 278 296 302 323 352 335 327 331 323 331 309 271 256 293 243 128 126 169 22 140 246 151 191 199 205 46 174 199 210 177 207 194 221 209 208 205 212 203 223 203 212 212 211 196 206 210 214 213 209 203 217 229 220 225 216 219 230 235 240 242 243 242 234 236 242 238 238 238 238 230 225 228 180 188 197 216 198 194 196 196 195 195
320 320 320 322 325 300 280 255 301 311 331 331 321 322 320 305 282 287 273 268 78 100 3 144 255 197 174 162 203 216 217 213 233 176 190 193 202 211 205 222 217 210 217 219 225 211 207 218 211 211 201 215 216 210 205 203 217 219 240 222 228 223 222 225 229 237 237 237 238 234 226 242 241 232 233 240 244 222 182 185 195 217 218 198 194 192 192 189
320 318 318 322 320 285 232 262 262 357 329 329 320 310 306 290 256 239 222 250 252 163 17 101 211 145 173 190 201 209 228 203 248 152 180 196 187 217 228 221 229 218 217 221 231 232 218 200 222 218 209 215 213 204 203 210 222 213 221 232 222 228 230 226 232 230 238 240 236 233 236 239 251 225 221 223 223 232 200 191 192 205 208 190 222 197 190 196
321 320 317 322 309 334 299 282 354 343 325 317 312 305 286 258 252 260 248 278 355 70 235 106 60 214 221 219 212 194 224 229 199 171 182 194 189 202 211 208 226 233 223 219 221 225 235 200 203 221 210 211 218 208 207 214 209 213 210 210 192 212 220 227 217 224 235 239 229 229 233 234 248 233 228 228 221 212 218 200 190 201 199 193 194 220 193 190
323 319 317 318 287 303 303 324 331 317 317 314 308 298 281 258 211 237 241 60 252 39 5 6 346 344 314 293 282 214 197 207 214 192 192 188 190 191 200 208 185 205 216 209 212 208 222 221 203 213 197 207 200 224 193 201 203 203 208 203 202 193 198 207 206 211 220 234 219 223 223 234 236 239 237 226 233 235 214 212 190 194 196 190 186 209 224 186
322 317 314 286 261 258 296 316 305 314 312 307 307 283 258 255 256 229 239 269 44 356 5 309 341 310 304 287 252 248 213 208 197 206 199 193 206 199 204 211 195 209 207 201 212 202 215 223 212 198 200 197 210 205 191 193 197 196 205 196 196 200 194 209 208 225 237 227 231 231 213 237 248 236 225 242 236 226 219 203 206 213 184 187 188 195 214 200
317 313 308 292 292 278 291 306 317 311 313 309 286 278 246 253 256 283 291 352 355 353 318 332 322 308 279 262 247 208 208 223 199 201 201 195 206 204 200 211 213 202 234 196 212 203 201 198 218 192 205 185 208 216 205 199 189 199 204 204 203 214 200 203 207 210 220 232 202 217 232 230 226 224 218 218 228 238 226 209 197 217 187 173 181 199 212 191
313 302 280 256 273 319 332 317 312 314 304 300 280 265 266 254 267 266 271 5 339 347 324 322 301 298 283 261 261 275 289 212 211 201 200 208 201 214 199 201 209 218 206 235 198 213 215 222 207 206 203 187 201 204 217 198 195 197 202 208 212 217 218 230 204 226 219 217 225 193 219 229 237 252 251 231 210 217 224 222 192 198 200 166 176 192 217 202
301 326 305 308 327 351 326 326 314 311 303 288 279 262 253 260 266 15 1 351 344 336 330 316 291 271 263 265 213 216 160 277 203 210 204 210 210 212 211 200 205 210 208 218 195 211 211 220 206 195 202 198 197 196 208 205 202 182 197 208 212 210 228 236 244 233 238 234 229 202 212 221 245 225 213 216 232 208 209 206 205 195 204 167 176 183 204 206
326 312 310 334 322 350 329 325 324 304 292 282 273 264 276 279 308 338 4 351 349 330 323 318 285 340 291 260 216 180 123 308 264 234 211 198 219 214 214 210 202 206 224 219 222 231 224 218 208 193 192 198 195 198 205 206 220 174 206 207 206 225 240 238 235 210 227 235 227 219 215 203 211 224 194 201 213 219 205 207 205 191 195 179 183 183 186 212
312 301 276 253 353 343 338 330 318 299 289 284 267 275 290 282 318 329 335 334 341 341 310 295 298 296 292 298 266 119 3 284 170 204 254 189 204 27 259 227 188 223 214 221 255 212 231 238 199 196 188 188 187 193 208 211 216 225 207 184 204 188 212 213 245 231 212 215 232 224 229 224 203 216 207 202 206 212 209 199 203 197 194 199 196 191 182 195
287 296 321 26 353 345 337 321 296 297 295 289 287 267 20 349 337 343 343 324 318 321 297 286 293 287 290 291 289 341 324 281 319 276 229 188 210 36 40 343 140 18 3 272 233 247 227 240 204 183 183 176 186 190 204 198 202 229 226 201 209 225 212 205 210 243 241 230 213 223 222 234 214 222 212 215 197 207 211 194 202 205 203 204 202 201 187 187
317 316 33 24 360 339 326 292 286 284 288 297 326 304 339 322 330 339 307 322 318 314 288 303 298 298 292 291 287 275 296 297 283 285 290 312 330 54 32 6 358 328 326 277 259 213 230 210 246 164 173 171 198 196 205 193 190 196 217 211 191 222 209 229 203 218 221 235 230 226 212 220 226 213 211 211 181 192 201 198 196 206 193 191 194 194 186 186
300 279 15 19 351 331 308 295 301 329 324 333 315 337 319 327 338 308 293 302 309 302 297 291 281 284 298 298 285 291 255 264 295 270 270 240 235 146 34 358 341 326 314 257 239 209 237 210 235 170 182 195 207 197 207 202 197 197 202 209 202 195 202 202 215 200 224 230 231 237 247 85 74 100 179 201 190 183 194 201 199 206 210 196 187 192 191 188
311 324 0 356 346 325 316 312 8 334 325 333 344 331 315 336 294 311 337 339 322 307 283 280 278 276 275 275 281 289 286 281 279 281 267 246 69 13 27 351 344 320 280 243 208 208 244 270 233 211 188 210 209 195 204 213 201 203 201 209 208 200 211 209 216 198 209 227 241 247 260 207 87 84 136 189 190 177 183 200 199 195 207 208 197 192 189 194
342 325 328 350 351 325 316 332 348 331 340 345 323 294 328 299 323 331 320 315 300 327 310 293 305 305 286 317 290 272 268 274 271 279 291 290 115 51 12 352 346 330 323 226 214 207 40 237 240 243 191 205 205 201 194 213 207 201 204 211 208 211 204 216 215 209 212 199 215 210 229 202 112 126 143 146 193 182 175 189 208 190 195 201 205 199 186 189
317 318 330 22 342 324 324 352 347 342 342 339 325 329 331 319 316 326 308 320 315 313 305 298 289 303 310 307 308 299 295 277 267 263 262 273 129 44 19 348 345 344 354 19 323 22 267 210 240 215 228 192 193 194 194 198 215 209 201 202 214 214 214 213 222 223 226 207 209 208 208 233 127 131 125 153 173 182 187 187 195 211 182 196 190 195 191 180
316 308 350 344 344 322 351 354 337 333 335 334 331 321 339 314 9 311 316 318 321 306 307 306 311 318 291 304 296 294 281 275 292 284 277 322 316 59 41 336 334 325 354 348 324 301 272 234 207 217 202 197 187 189 191 188 202 209 205 200 207 213 212 201 213 204 231 202 212 210 209 102 99 136 122 194 185 220 216 181 171 202 183 188 187 114 103 90
350 318 6 330 348 309 336 306 317 336 320 337 321 336 323 318 325 335 320 320 331 317 305 311 320 303 308 305 302 289 284 265 259 269 294 283 277 313 16 338 315 327 347 318 302 296 270 268 233 228 225 211 200 239 205 197 194 210 202 206 199 211 213 211 211 222 213 206 224 213 244 123 166 144 170 190 181 192 178 170 159 167 184 114 70 91 99 120
325 322 349 333 329 326 333 333 336 329 324 332 303 333 314 322 323 302 24 306 359 336 328 352 321 327 327 309 302 300 283 277 264 257 268 293 304 299 317 307 297 14 341 295 310 298 277 262 249 234 240 238 64 291 354 286 210 204 210 204 207 202 211 209 209 216 195 210 221 192 230 228 134 157 167 183 169 171 170 175 138 132 143 161 118 87 145 169
326 345 319 349 310 317 322 321 328 312 308 307 303 314 306 309 316 316 328 332 321 322 310 195 292 316 323 323 313 295 309 303 306 320 355 14 357 351 305 274 226 43 312 310 314 291 306 266 240 247 237 248 249 309 319 263 236 220 211 211 206 206 203 213 213 215 203 217 220 187 198 229 200 149 163 160 152 149 145 156 155 139 119 116 136 156 173 182
316 318 320 335 305 320 308 310 306 304 303 309 312 287 293 315 314 327 328 321 315 307 326 312 306 314 322 316 308 293 300 314 270 355 342 357 334 322 287 280 194 33 331 336 323 334 298 250 278 262 242 239 242 248 241 264 241 239 258 222 209 210 207 209 215 214 213 215 226 205 188 214 221 171 158 156 149 183 159 210 95 135 161 103 115 173 186 162
324 327 319 320 302 297 299 302 302 297 299 300 277 325 324 313 305 318 317 317 313 304 334 306 314 314 310 304 294 280 292 293 302 307 321 331 317 274 316 324 9 348 336 329 320 2 311 194 348 297 290 253 255 239 241 249 238 232 224 262 227 206 213 209 211 213 215 218 213 217 188 204 210 231 214 152 170 181 291 242 204 192 165 169 176 172 182 173
312 314 314 313 308 311 314 301 292 302 296 281 277 331 311 298 303 325 303 305 296 307 316 311 315 305 297 292 290 288 294 292 287 283 292 293 285 308 317 311 340 320 319 308 318 329 294 294 305 295 252 247 237 231 229 236 254 244 243 228 229 219 208 206 211 208 210 212 215 215 217 209 183 194 239 252 229 229 239 244 253 260 273 270 245 236 188 204
312 303 284 295 294 300 300 297 291 288 278 344 329 308 307 309 301 310 306 295 277 275 291 298 303 305 290 288 293 302 320 302 287 286 278 267 269 278 271 276 278 287 307 304 303 305 309 317 301 226 233 243 232 231 231 228 234 231 224 225 227 228 239 218 212 208 214 214 215 223 225 219 211 191 211 221 239 234 237 242 246 248 257 269 272 272 273 252